Voltar ao catálogo

CZ-6A DEB

AtivoPO
NORAD 60968·DEBRIS·🇨🇳 China

Lançado Aug 6, 2024 de Taiyuan Satellite Launch Center

Loading…

Próximas Passagens (próximas 24 horas)

TLE

AtualizadoSource: Space-Track

Época: Sep 14, 2026, 06:42 UTC

1 60968U 24140LT  26257.27938680  .00000299  00000-0  13681-3 0  9997
2 60968  88.9998 265.2887 0049194 261.3976  98.1638 14.18325618107676

Acompanhe CZ-6A DEB em tempo real com AllMySat

Download on the App Store